When you browse on this site, cookies collect data to enhance your experience and personalize the content and advertising you see.
Visit our Privacy Policy to learn more. By continuing to use the site, you agree to this use of cookies and data.
  • In Czech Republic
  • List of Countries
  • For 7 days
  • Water Temperature
  • Satellite Maps
  • Weather Map
  • Weather Widgets
  • user-avatar
    Login

    Hourly Weather West Babylon

    Today, 21 February, Thursday

    Time Temperature Precipitation Wind Pressure Humidity
    00:00 -1°C° 2.9 mm 6 mps 763 mmHg 97%
    01:00 -1°C° 0 mm 6 mps 761 mmHg 98%
    02:00 0°C° 0.4 mm 5 mps 760 mmHg 98%
    03:00 +1°C° 0.4 mm 3 mps 759 mmHg 99%
    04:00 +2°C° 0.4 mm 2 mps 759 mmHg 99%
    05:00 +1°C° 0 mm 3 mps 759 mmHg 99%
    06:00 +1°C° 0 mm 3 mps 759 mmHg 98%
    07:00 0°C° 0 mm 4 mps 759 mmHg 98%
    08:00 +1°C° 0 mm 4 mps 759 mmHg 95%
    09:00 +1°C° 0 mm 5 mps 759 mmHg 92%
    10:00 +2°C° 0 mm 6 mps 759 mmHg 89%
    11:00 +3°C° 0 mm 6 mps 760 mmHg 83%
    12:00 +4°C° 0 mm 6 mps 760 mmHg 77%
    13:00 +7°C° 0 mm 6 mps 760 mmHg 71%
    14:00 +7°C° 0 mm 6 mps 760 mmHg 66%
    15:00 +7°C° 0 mm 5 mps 760 mmHg 61%
    16:00 +7°C° 0 mm 5 mps 761 mmHg 56%
    17:00 +7°C° 0 mm 5 mps 761 mmHg 60%
    18:00 +6°C° 0 mm 4 mps 762 mmHg 64%
    19:00 +5°C° 0 mm 4 mps 762 mmHg 67%
    20:00 +4°C° 0 mm 4 mps 763 mmHg 68%
    21:00 +3°C° 0 mm 5 mps 764 mmHg 69%
    22:00 +2°C° 0 mm 5 mps 765 mmHg 69%
    23:00 +2°C° 0 mm 6 mps 765 mmHg 66%

    Tomorrow, 22 February, Friday

    Time Temperature Precipitation Wind Pressure Humidity
    00:00 +1°C° 0 mm 6 mps 766 mmHg 62%
    01:00 +1°C° 0 mm 6 mps 766 mmHg 59%
    02:00 +1°C° 0 mm 6 mps 766 mmHg 59%
    03:00 -1°C° 0 mm 6 mps 767 mmHg 60%
    04:00 -1°C° 0 mm 6 mps 767 mmHg 60%
    05:00 0°C° 0 mm 5 mps 768 mmHg 61%
    06:00 0°C° 0 mm 5 mps 768 mmHg 62%
    07:00 -1°C° 0 mm 4 mps 769 mmHg 62%
    08:00 0°C° 0 mm 4 mps 770 mmHg 59%
    09:00 0°C° 0 mm 4 mps 770 mmHg 57%
    10:00 +1°C° 0 mm 4 mps 771 mmHg 54%
    11:00 +1°C° 0 mm 4 mps 771 mmHg 51%
    12:00 +3°C° 0 mm 3 mps 771 mmHg 48%
    13:00 +4°C° 0 mm 3 mps 771 mmHg 45%
    14:00 +5°C° 0 mm 3 mps 771 mmHg 46%
    15:00 +5°C° 0 mm 3 mps 771 mmHg 46%
    16:00 +5°C° 0 mm 3 mps 771 mmHg 47%
    17:00 +6°C° 0 mm 2 mps 771 mmHg 50%
    18:00 +5°C° 0 mm 2 mps 772 mmHg 53%
    19:00 +5°C° 0 mm 2 mps 772 mmHg 56%
    20:00 +5°C° 0 mm 2 mps 773 mmHg 58%
    21:00 +4°C° 0 mm 2 mps 773 mmHg 61%
    22:00 +4°C° 0 mm 2 mps 773 mmHg 63%
    23:00 +3°C° 0 mm 2 mps 773 mmHg 65%

    Day after tomorrow, 23 February, Saturday

    Time Temperature Precipitation Wind Pressure Humidity
    00:00 +3°C° 0 mm 2 mps 773 mmHg 66%
    01:00 +3°C° 0 mm 2 mps 773 mmHg 68%
    02:00 +2°C° 0 mm 2 mps 773 mmHg 68%
    03:00 +2°C° 0 mm 2 mps 773 mmHg 68%
    04:00 +1°C° 0 mm 3 mps 773 mmHg 68%
    05:00 +1°C° 0 mm 2 mps 773 mmHg 67%
    06:00 +1°C° 0 mm 2 mps 773 mmHg 67%
    07:00 +1°C° 0 mm 2 mps 773 mmHg 66%
    08:00 +2°C° 0 mm 2 mps 773 mmHg 61%
    09:00 +3°C° 0 mm 2 mps 773 mmHg 57%
    10:00 +3°C° 0 mm 2 mps 774 mmHg 53%
    11:00 +4°C° 0 mm 2 mps 773 mmHg 51%
    12:00 +5°C° 0 mm 2 mps 773 mmHg 50%
    13:00 +5°C° 0 mm 2 mps 772 mmHg 48%
    14:00 +5°C° 0 mm 2 mps 771 mmHg 51%
    15:00 +5°C° 0 mm 2 mps 771 mmHg 54%
    16:00 +5°C° 0 mm 2 mps 770 mmHg 57%
    17:00 +4°C° 0 mm 3 mps 770 mmHg 60%
    18:00 +4°C° 0 mm 3 mps 770 mmHg 63%
    19:00 +3°C° 0 mm 3 mps 769 mmHg 66%
    20:00 +3°C° 0 mm 3 mps 769 mmHg 68%
    21:00 +4°C° 0 mm 3 mps 768 mmHg 69%
    22:00 +4°C° 0 mm 3 mps 768 mmHg 70%
    23:00 +4°C° 0.3 mm 3 mps 767 mmHg 75%

    24 February, Sunday

    Time Temperature Precipitation Wind Pressure Humidity
    00:00 +4°C° 0.3 mm 4 mps 766 mmHg 80%
    01:00 +4°C° 0.3 mm 4 mps 765 mmHg 84%
    02:00 +3°C° 0.6 mm 5 mps 763 mmHg 88%
    03:00 +5°C° 0.6 mm 5 mps 762 mmHg 92%
    04:00 +5°C° 0.6 mm 5 mps 761 mmHg 96%
    05:00 +5°C° 1.9 mm 6 mps 759 mmHg 96%
    06:00 +6°C° 1.9 mm 7 mps 758 mmHg 96%
    07:00 +8°C° 1.9 mm 7 mps 757 mmHg 97%
    08:00 +8°C° 1.9 mm 7 mps 756 mmHg 97%
    09:00 +8°C° 1.9 mm 7 mps 754 mmHg 97%
    10:00 +8°C° 1.9 mm 7 mps 753 mmHg 97%
    11:00 +8°C° 2.2 mm 7 mps 752 mmHg 97%
    12:00 +9°C° 2.2 mm 6 mps 750 mmHg 97%
    13:00 +9°C° 2.2 mm 6 mps 748 mmHg 98%
    14:00 +10°C° 0.1 mm 7 mps 747 mmHg 96%
    15:00 +11°C° 0.1 mm 7 mps 746 mmHg 95%
    16:00 +12°C° 0.1 mm 8 mps 745 mmHg 94%
    17:00 +11°C° 0.1 mm 9 mps 746 mmHg 80%
    18:00 +9°C° 0.1 mm 10 mps 747 mmHg 66%
    19:00 +9°C° 0.1 mm 10 mps 747 mmHg 52%
    20:00 +8°C° 0 mm 10 mps 748 mmHg 51%
    21:00 +7°C° 0 mm 10 mps 749 mmHg 51%
    22:00 +6°C° 0 mm 10 mps 749 mmHg 50%
    23:00 +5°C° 0 mm 10 mps 749 mmHg 49%

    25 February, Monday

    Time Temperature Precipitation Wind Pressure Humidity
    00:00 +4°C° 0 mm 11 mps 749 mmHg 47%
    01:00 +3°C° 0 mm 11 mps 750 mmHg 45%
    02:00 +2°C° 0 mm 11 mps 750 mmHg 45%
    03:00 +2°C° 0 mm 12 mps 750 mmHg 44%
    04:00 0°C° 0 mm 12 mps 751 mmHg 44%
    05:00 0°C° 0 mm 12 mps 752 mmHg 43%
    06:00 -1°C° 0 mm 12 mps 752 mmHg 43%
    07:00 -1°C° 0 mm 12 mps 753 mmHg 42%
    08:00 -1°C° 0 mm 12 mps 754 mmHg 39%
    09:00 -1°C° 0 mm 12 mps 755 mmHg 36%
    10:00 -1°C° 0 mm 12 mps 755 mmHg 33%
    11:00 0°C° 0 mm 12 mps 756 mmHg 32%
    12:00 0°C° 0 mm 12 mps 757 mmHg 31%
    13:00 0°C° 0 mm 12 mps 757 mmHg 30%
    14:00 0°C° 0 mm 12 mps 758 mmHg 30%
    15:00 -1°C° 0 mm 12 mps 759 mmHg 29%
    16:00 -1°C° 0 mm 12 mps 760 mmHg 29%
    17:00 -2°C° 0 mm 12 mps 761 mmHg 31%
    18:00 -3°C° 0 mm 11 mps 762 mmHg 32%
    19:00 -4°C° 0 mm 11 mps 764 mmHg 33%
    20:00 -6°C° 0 mm 11 mps 764 mmHg 34%
    21:00 -6°C° 0 mm 11 mps 765 mmHg 34%
    22:00 -7°C° 0 mm 10 mps 766 mmHg 34%
    23:00 -7°C° 0 mm 10 mps 767 mmHg 33%

    26 February, Tuesday

    Time Temperature Precipitation Wind Pressure Humidity
    00:00 -8°C° 0 mm 10 mps 767 mmHg 33%
    01:00 -8°C° 0 mm 9 mps 768 mmHg 32%
    02:00 -8°C° 0 mm 9 mps 769 mmHg 31%
    03:00 -8°C° 0 mm 8 mps 769 mmHg 30%
    04:00 -8°C° 0 mm 8 mps 770 mmHg 30%
    05:00 -8°C° 0 mm 8 mps 771 mmHg 30%
    06:00 -9°C° 0 mm 7 mps 772 mmHg 31%
    07:00 -9°C° 0 mm 7 mps 772 mmHg 31%
    08:00 -8°C° 0 mm 6 mps 773 mmHg 30%
    09:00 -8°C° 0 mm 6 mps 773 mmHg 29%
    10:00 -6°C° 0 mm 6 mps 773 mmHg 28%
    11:00 -5°C° 0 mm 5 mps 773 mmHg 27%
    12:00 -4°C° 0 mm 5 mps 772 mmHg 26%
    13:00 -2°C° 0 mm 5 mps 772 mmHg 25%
    14:00 -2°C° 0 mm 5 mps 771 mmHg 26%
    15:00 -1°C° 0 mm 4 mps 771 mmHg 26%
    16:00 -1°C° 0 mm 4 mps 771 mmHg 27%
    17:00 0°C° 0 mm 3 mps 771 mmHg 31%
    18:00 +1°C° 0 mm 2 mps 771 mmHg 34%
    19:00 +1°C° 0 mm 2 mps 771 mmHg 37%
    20:00 +1°C° 0 mm 2 mps 770 mmHg 40%
    21:00 0°C° 0 mm 3 mps 770 mmHg 43%
    22:00 0°C° 0 mm 3 mps 770 mmHg 45%
    23:00 0°C° 0 mm 4 mps 769 mmHg 56%
    Show more